Flag for Canada Weather past 2 weeks in Niagara Falls, Ontario, Canada

Now
66 °F

Mostly cloudy.


Feels Like: 66 °F
Forecast: 63 / 79 °F
Wind: No wind

Location: Niagara Falls International Airport

Current Time: Aug 30, 2015 at 6:47:34 AM

Latest Report: Aug 30, 2015 at 5:53 AM


Visibility: 10 mi

Pressure: 30.04 "Hg

Humidity: 81%

Dew point: 60 °F

Location of Niagara FallsLocation

Historic Weather in Niagara Falls — Graph

°F

Niagara Falls temperature yesterday

Maximum temperature yesterday: 77 °F (at 2:53 PM)
Minimum temperature yesterday: 54 °F (at 5:53 AM)
Average temperature yesterday: 68 °F

Past Weeks' High & Low Weather Summary

 TemperatureHumidityPressure
High86 °F (Aug 17, 3:53 PM)94% (Aug 17, 10:53 PM)30.22 "Hg (Aug 17, 10:53 PM)
Low51 °F (Aug 28, 5:53 AM)40% (Aug 22, 3:53 PM)29.73 "Hg (Aug 20, 5:53 AM)
Average69 °F72%30.01 "Hg
* Reported Aug 15 5:53 AM — Aug 30 5:53 AM, Niagara Falls, Weather by CustomWeather, © 2015

Note: Actual official high and low records may vary slightly from our data, if they occured in-between our weather recording intervals... More about our weather records

Advertising

Niagara Falls weather history for previous 24 hours

 ConditionsComfort  
Time TempWeatherWind HumidityBarometerVisibility
5:53 AM
Sun, Aug 30
66 °FMostly cloudy.No wind81%30.04 "Hg10 mi
4:53 AM66 °FOvercast.3 mph78%30.04 "Hg10 mi
3:53 AM67 °FMostly cloudy.No wind76%30.03 "Hg10 mi
2:53 AM68 °FOvercast.3 mph73%30.04 "Hg10 mi
1:53 AM68 °FMostly cloudy.3 mph73%30.05 "Hg10 mi
12:53 AM67 °FOvercast.5 mph81%30.07 "Hg10 mi
11:53 PM
Sat, Aug 29
69 °FOvercast.No wind73%30.06 "Hg10 mi
10:53 PM69 °FOvercast.No wind73%30.07 "Hg10 mi
9:53 PM70 °FMostly cloudy.3 mph71%30.07 "Hg10 mi
8:53 PM72 °FOvercast.No wind61%30.07 "Hg10 mi
7:53 PM73 °FMostly cloudy.5 mph57%30.07 "Hg10 mi
6:53 PM74 °FPartly sunny.6 mph56%30.08 "Hg10 mi
5:53 PM75 °FCloudy.6 mph55%30.09 "Hg10 mi
4:53 PM76 °FBroken clouds.9 mph50%30.09 "Hg10 mi
3:53 PM76 °FBroken clouds.3 mph52%30.10 "Hg10 mi
2:53 PM77 °FBroken clouds.9 mph50%30.11 "Hg10 mi
1:53 PM75 °FPartly sunny.6 mph62%30.14 "Hg10 mi
12:53 PM73 °FPartly sunny.7 mph64%30.15 "Hg10 mi
11:53 AM72 °FPartly sunny.9 mph68%30.16 "Hg10 mi
10:53 AM73 °FBroken clouds.5 mph62%30.16 "Hg10 mi
9:53 AM68 °FBroken clouds.3 mph78%30.16 "Hg10 mi
8:53 AM61 °FBroken clouds.No wind90%30.17 "Hg8 mi
7:53 AM58 °FPartly sunny.No wind90%30.17 "Hg8 mi
6:53 AM56 °FPassing clouds.No wind90%30.15 "Hg7 mi
Weather by CustomWeather, © 2015

See weather overviewHow to use our weather pages